Walnut Ridge, AR

9:51 PM CDT on March 24, 2017 (GMT -0500)
Walnut Ridge Regional

Weather History for KARG - October, 2011

Change the Weather History Date:

Wednesday, October 12, 2011

  Actual Average Record
Temperature  
Mean Temperature 62 °F -  
Max Temperature 66 °F 70 °F 87 °F (2015)
Min Temperature 59 °F 49 °F 39 °F (2000)
Degree Days  
Heating Degree Days 2    
Growing Degree Days 12 (Base 50)    
Moisture  
Dew Point 56 °F    
Average Humidity 80    
Maximum Humidity 88    
Minimum Humidity 73    
Precipitation  
Precipitation 0.32 in - - ()
Sea Level Pressure  
Sea Level Pressure 29.80 in    
Wind  
Wind Speed 6 mph (South)    
Max Wind Speed 10 mph    
Max Gust Speed -    
Visibility 10 miles    
Events      
Averages and records for this station are not official NWS values.
T = Trace of Precipitation, MM = Missing Value Source: NWS Daily Summary

Daily Weather History Graph

Daily Weather History Graph

Search for Another Location

Airport or City:

Trip Planner

Search our weather history database for the weather conditions in past years. The results will help you decide how hot, cold, wet, or windy it might be!

Date:

Astronomy

Oct. 12, 2011 Rise Set
Actual Time 7:07 AM CDT 6:32 PM CDT
Civil Twilight 6:41 AM CDT 6:57 PM CDT
Nautical Twilight 6:12 AM CDT 7:27 PM CDT
Astronomical Twilight 5:42 AM CDT 7:57 PM CDT
Moon 6:37 PM CDT (10/12) 7:39 AM CDT (10/12)
Length of Visible Light 12h 15m
Length of Day
11h 24m
Full, 100% of the Moon is Illuminated
Oct 12
Full
Oct 19
Last Quarter
Oct 26
New
Nov 2
First Quarter
Nov 10
Full

Hourly Weather History & Observations

Time (CDT) Temp. Dew Point Humidity Pressure Visibility Wind Dir Wind Speed Gust Speed Precip Events Conditions
12:15 AM 64.4 °F 55.4 °F 73% 29.86 in 10.0 mi South 5.8 mph - N/A   Scattered Clouds
12:35 AM 64.4 °F 55.4 °F 73% 29.86 in 10.0 mi SSW 4.6 mph - N/A   Partly Cloudy
12:55 AM 64.4 °F 55.4 °F 73% 29.86 in 10.0 mi South 6.9 mph - N/A   Clear
1:15 AM 64.4 °F 55.4 °F 73% 29.86 in 9.0 mi SSE 5.8 mph - N/A   Clear
1:35 AM 64.4 °F 55.4 °F 73% 29.86 in 10.0 mi SSE 8.1 mph - N/A   Clear
1:55 AM 64.4 °F 55.4 °F 73% 29.86 in 10.0 mi South 6.9 mph - N/A   Clear
2:35 AM 64.4 °F 55.4 °F 73% 29.85 in 10.0 mi South 8.1 mph - N/A   Clear
2:55 AM 62.6 °F 55.4 °F 77% 29.85 in 10.0 mi South 6.9 mph - N/A   Clear
3:15 AM 62.6 °F 55.4 °F 77% 29.85 in 10.0 mi South 6.9 mph - N/A   Clear
3:35 AM 60.8 °F 55.4 °F 82% 29.85 in 10.0 mi South 8.1 mph - N/A   Clear
3:55 AM 60.8 °F 55.4 °F 82% 29.85 in 10.0 mi SSE 8.1 mph - N/A   Partly Cloudy
4:15 AM 60.8 °F 55.4 °F 82% 29.84 in 10.0 mi South 8.1 mph - N/A   Partly Cloudy
4:35 AM 60.8 °F 55.4 °F 82% 29.84 in 10.0 mi South 6.9 mph - N/A   Partly Cloudy
4:55 AM 60.8 °F 53.6 °F 77% 29.84 in 10.0 mi South 5.8 mph - N/A   Clear
5:15 AM 60.8 °F 53.6 °F 77% 29.83 in 10.0 mi SSE 6.9 mph - N/A   Clear
5:35 AM 60.8 °F 53.6 °F 77% 29.83 in 10.0 mi SSE 8.1 mph - N/A   Clear
5:55 AM 60.8 °F 53.6 °F 77% 29.82 in 10.0 mi SSE 6.9 mph - N/A   Clear
6:15 AM 59.0 °F 53.6 °F 82% 29.83 in 10.0 mi SSE 5.8 mph - N/A   Clear
6:35 AM 59.0 °F 53.6 °F 82% 29.83 in 10.0 mi SSE 3.5 mph - N/A   Clear
6:55 AM 59.0 °F 53.6 °F 82% 29.83 in 10.0 mi SSE 4.6 mph - N/A   Clear
7:15 AM 59.0 °F 53.6 °F 82% 29.84 in 9.0 mi SSE 4.6 mph - N/A   Partly Cloudy
7:35 AM 60.8 °F 53.6 °F 77% 29.84 in 10.0 mi ESE 4.6 mph - N/A   Scattered Clouds
7:55 AM 60.8 °F 55.4 °F 82% 29.85 in 10.0 mi Calm Calm - N/A   Scattered Clouds
8:15 AM 60.8 °F 55.4 °F 82% 29.85 in 10.0 mi SSE 3.5 mph - N/A   Mostly Cloudy
8:35 AM 62.6 °F 57.2 °F 82% 29.85 in 10.0 mi South 8.1 mph - N/A   Scattered Clouds
8:55 AM 62.6 °F 57.2 °F 82% 29.85 in 10.0 mi South 6.9 mph - N/A   Mostly Cloudy
9:15 AM 62.6 °F 57.2 °F 82% 29.85 in 10.0 mi South 6.9 mph - N/A   Scattered Clouds
9:35 AM 64.4 °F 57.2 °F 77% 29.85 in 10.0 mi South 5.8 mph - N/A   Partly Cloudy
9:55 AM 64.4 °F 57.2 °F 77% 29.85 in 10.0 mi South 9.2 mph - N/A   Scattered Clouds
10:15 AM 64.4 °F 59.0 °F 83% 29.85 in 9.0 mi South 8.1 mph - N/A   Mostly Cloudy
10:35 AM 64.4 °F 59.0 °F 83% 29.84 in 10.0 mi SSW 3.5 mph - N/A   Overcast
10:55 AM 64.4 °F 59.0 °F 83% 29.85 in 10.0 mi WSW 8.1 mph - 0.01 in   Overcast
11:15 AM 64.4 °F 59.0 °F 83% 29.85 in 10.0 mi WSW 8.1 mph - N/A   Overcast
11:35 AM 64.4 °F 59.0 °F 83% 29.84 in 10.0 mi Calm Calm - N/A   Overcast
11:55 AM 64.4 °F 59.0 °F 83% 29.83 in 8.0 mi SSW 4.6 mph - 0.02 in   Overcast
12:15 PM 64.4 °F 59.0 °F 83% 29.82 in 10.0 mi South 3.5 mph - N/A   Mostly Cloudy
12:35 PM 66.2 °F 59.0 °F 78% 29.82 in 10.0 mi Calm Calm - N/A   Partly Cloudy
12:55 PM 66.2 °F 59.0 °F 78% 29.81 in 10.0 mi Calm Calm - N/A   Scattered Clouds
1:15 PM 66.2 °F 59.0 °F 78% 29.81 in 10.0 mi West 4.6 mph - N/A   Mostly Cloudy
1:35 PM 66.2 °F 59.0 °F 78% 29.81 in 10.0 mi West 8.1 mph - N/A   Overcast
2:15 PM 64.4 °F 59.0 °F 83% 29.80 in 8.0 mi WNW 10.4 mph - 0.02 in   Mostly Cloudy
2:35 PM 62.6 °F 57.2 °F 82% 29.79 in 7.0 mi NW 5.8 mph - 0.14 in   Overcast
2:55 PM 62.6 °F 57.2 °F 82% 29.77 in 10.0 mi NW 5.8 mph - 0.18 in   Overcast
3:15 PM 62.6 °F 57.2 °F 82% 29.77 in 10.0 mi Calm Calm - 0.01 in   Overcast
3:35 PM 64.4 °F 57.2 °F 77% 29.77 in 10.0 mi West 3.5 mph - 0.02 in   Mostly Cloudy
4:15 PM 62.6 °F 57.2 °F 82% 29.76 in 10.0 mi SSW 4.6 mph - 0.02 in   Overcast
4:35 PM 62.6 °F 57.2 °F 82% 29.75 in 10.0 mi SSW 6.9 mph - 0.04 in   Overcast
4:55 PM 62.6 °F 57.2 °F 82% 29.75 in 10.0 mi South 9.2 mph - 0.07 in   Overcast
5:35 PM 62.6 °F 57.2 °F 82% 29.72 in 10.0 mi SSW 4.6 mph - 0.02 in   Partly Cloudy
5:55 PM 62.6 °F 57.2 °F 82% 29.70 in 10.0 mi ESE 3.5 mph - 0.02 in   Scattered Clouds
6:15 PM 62.6 °F 57.2 °F 82% 29.70 in 10.0 mi SE 4.6 mph - N/A   Partly Cloudy
6:35 PM 62.6 °F 57.2 °F 82% 29.69 in 10.0 mi ESE 3.5 mph - N/A   Partly Cloudy
6:55 PM 62.6 °F 57.2 °F 82% 29.69 in 10.0 mi ESE 3.5 mph - N/A   Partly Cloudy
7:15 PM 62.6 °F 57.2 °F 82% 29.69 in 10.0 mi ESE 3.5 mph - N/A   Scattered Clouds
7:35 PM 62.6 °F 57.2 °F 82% 29.70 in 10.0 mi WSW 3.5 mph - N/A   Mostly Cloudy
7:55 PM 62.6 °F 57.2 °F 82% 29.70 in 10.0 mi SSW 3.5 mph - N/A   Overcast
8:15 PM 60.8 °F 55.4 °F 82% 29.70 in 6.0 mi SSE 5.8 mph - N/A   Scattered Clouds
8:35 PM 60.8 °F 55.4 °F 82% 29.72 in 10.0 mi SW 8.1 mph - N/A   Scattered Clouds
8:55 PM 60.8 °F 57.2 °F 88% 29.72 in 10.0 mi SSW 9.2 mph - N/A   Scattered Clouds
9:15 PM 60.8 °F 55.4 °F 82% 29.72 in 10.0 mi South 8.1 mph - N/A   Scattered Clouds
9:35 PM 60.8 °F 55.4 °F 82% 29.73 in 10.0 mi South 9.2 mph - N/A   Partly Cloudy
9:55 PM 60.8 °F 55.4 °F 82% 29.73 in 10.0 mi South 6.9 mph - N/A   Mostly Cloudy
10:15 PM 60.8 °F 55.4 °F 82% 29.72 in 10.0 mi South 8.1 mph - N/A   Partly Cloudy
10:35 PM 60.8 °F 55.4 °F 82% 29.72 in 10.0 mi South 12.7 mph - N/A   Mostly Cloudy
10:55 PM 60.8 °F 55.4 °F 82% 29.71 in 9.0 mi South 13.8 mph - 0.01 in   Mostly Cloudy
11:15 PM 60.8 °F 55.4 °F 82% 29.71 in 9.0 mi South 16.1 mph - 0.13 in   Mostly Cloudy
11:35 PM 60.8 °F 55.4 °F 82% 29.69 in 10.0 mi South 15.0 mph - 0.14 in   Clear
11:55 PM 60.8 °F 55.4 °F 82% 29.69 in 10.0 mi South 13.8 mph - 0.14 in   Clear